Home > Weather > Pointe-Noire > Past weeks

Flag for Congo Weather for the Past 2 Weeks in Pointe-Noire, Congo

Now
86 °F

Passing clouds.


Feels Like: 93 °F
Forecast: 81 / 88 °F
Wind: 5 mph from West

Location: Pointe Airport-Noire

Current Time: Feb 12, 2016 at 7:21:35 PM

Latest Report: Feb 12, 2016 at 6:00 PM


Visibility: N/A

Pressure: 29.80 "Hg

Humidity: 66%

Dew point: 73 °F

Location of Pointe-NoireLocation

Historic Weather in Pointe-Noire — Graph

°F

Pointe-Noire Temperature Yesterday

Maximum temperature yesterday: 88 °F (at 12:00 PM)
Minimum temperature yesterday: 77 °F (at 5:00 AM)
Average temperature yesterday: 82 °F

High & Low Weather Summary for the Past Weeks

 TemperatureHumidityPressure
High90 °F (Jan 29, 11:00 AM)100% (Feb 2, 1:00 AM)29.98 "Hg (Feb 2, 1:00 AM)
Low75 °F (Feb 5, 12:00 PM)59% (Feb 12, 12:00 PM)29.77 "Hg (Jan 29, 5:00 PM)
Average83 °F84%29.87 "Hg
* Reported Jan 28 6:00 PM — Feb 12 6:00 PM, Pointe-Noire, Weather by CustomWeather, © 2016

Note: Actual official high and low records may vary slightly from our data, if they occured in-between our weather recording intervals... More about our weather records

Advertising

Pointe-Noire Weather History for the Previous 24 Hours

 ConditionsComfort  
Time TempWeatherWind HumidityBarometerVisibility
6:00 PM
Fri, Feb 12
86 °FPassing clouds.5 mph66%29.80 "HgN/A
5:00 PM88 °FPassing clouds.7 mph62%29.77 "HgN/A
4:00 PM88 °FPassing clouds.8 mph59%29.80 "HgN/A
3:00 PM90 °FPassing clouds.7 mph63%29.80 "HgN/A
2:00 PM90 °FPassing clouds.7 mph67%29.83 "HgN/A
1:00 PM90 °FPassing clouds.7 mph63%29.86 "Hg5 mi
12:00 PM88 °FPassing clouds.6 mph59%29.86 "Hg5 mi
11:00 AM84 °FPassing clouds.5 mph70%29.89 "Hg5 mi
10:00 AM81 °FScattered clouds.3 mph84%29.89 "Hg5 mi
9:00 AM79 °FScattered clouds.6 mph89%29.89 "Hg4 mi
8:00 AM79 °FScattered clouds.3 mph94%29.92 "Hg4 mi
7:00 AM77 °FThunderstorms. Scattered clouds.7 mph94%29.86 "Hg4 mi
6:00 AM79 °FThunderstorms. Passing clouds.9 mph89%29.86 "Hg4 mi
5:00 AM79 °FThunderstorms. Passing clouds.7 mph94%29.86 "Hg4 mi
4:00 AM79 °FThunderstorms. Passing clouds.7 mph94%29.86 "Hg4 mi
3:00 AM77 °FThunderstorms. Passing clouds.7 mph100%29.83 "Hg4 mi
2:00 AM79 °FPassing clouds.6 mph94%29.83 "Hg4 mi
1:00 AM79 °FPassing clouds.5 mph94%29.86 "Hg4 mi
12:00 AM81 °FPassing clouds.5 mph94%29.89 "Hg4 mi
10:00 PM
Thu, Feb 11
81 °FLight rain. Passing clouds.5 mph94%29.89 "Hg4 mi
9:00 PM82 °FLight rain. Passing clouds.2 mph84%29.89 "Hg4 mi
8:00 PM81 °FLight rain. Partly cloudy.2 mph94%29.83 "Hg4 mi
7:00 PM81 °FPassing clouds.5 mph94%29.83 "Hg4 mi
Weather by CustomWeather, © 2016

See weather overviewHow to use our weather pages